Flight Track Log - Related Links

Times and Time Zones

All times are in EDT time to prevent confusion due to time zone crossing. See the N2158U flight status page for this flight to view local times or setup timezone preferences in your user account.

Time Position Orientation Groundspeed Altitude Reporting Facility
EDT Latitude Longitude Course Direction KTS MPH feet Rate Location/Type
Fri 08:02:09 AM 32.9333 -97.3000 164° South 180 207 5,500  Level Dallas / Fort Worth TRACON
Fri 08:02:57 AM 32.9000 -97.3000 180° South 218 251 8,100 2,748 Climbing Dallas / Fort Worth TRACON
Fri 08:03:56 AM 32.8394 -97.2947 176° South 226 260 10,400 2,816 Climbing Fort Worth Center
Fri 08:05:56 AM 32.7058 -97.2678 170° South 244 281 16,500 3,100 Climbing Fort Worth Center
Fri 08:06:56 AM 32.6350 -97.2531 170° South 234 269 19,700 2,650 Climbing Fort Worth Center
Fri 08:07:56 AM 32.5744 -97.2433 172° South 229 264 21,800 1,850 Climbing Fort Worth Center
Fri 08:08:56 AM 32.5139 -97.2311 170° South 236 272 23,400 1,600 Climbing Fort Worth Center
Fri 08:09:56 AM 32.4469 -97.2461 191° South 242 278 25,000 1,250 Climbing Fort Worth Center
Fri 08:10:56 AM 32.3825 -97.2928 211° Southwest 248 285 25,900 500 Climbing Fort Worth Center
Fri 08:11:56 AM 32.3136 -97.3469 214° Southwest 271 312 26,000 50 Climbing Fort Worth Center
Fri 08:12:56 AM 32.2425 -97.4086 216° Southwest 301 346 26,000  Level Fort Worth Center
Fri 08:13:56 AM 32.1694 -97.4722 216° Southwest 323 372 26,000  Level Fort Worth Center
Fri 08:14:56 AM 32.0942 -97.5361 216° Southwest 333 383 26,000  Level Fort Worth Center
Fri 08:15:56 AM 32.0044 -97.5725 199° South 333 383 26,000  Level Fort Worth Center
Fri 08:16:56 AM 31.9189 -97.6092 200° South 333 383 26,000  Level Fort Worth Center
Fri 08:17:56 AM 31.8289 -97.6408 197° South 333 383 26,000  Level Fort Worth Center
Fri 08:20:04 AM 31.6447 -97.7283 202° Southwest 340 391 26,000  Level Houston Center
Fri 08:21:05 AM 31.5647 -97.7858 211° Southwest 335 386 26,000  Level Houston Center
Fri 08:22:06 AM 31.4911 -97.8500 217° Southwest 329 379 26,000  Level Houston Center
Fri 08:23:08 AM 31.4186 -97.9175 218° Southwest 330 380 26,000  Level Houston Center
Fri 08:24:09 AM 31.3442 -97.9836 217° Southwest 333 383 26,000  Level Houston Center
Fri 08:25:11 AM 31.2694 -98.0486 217° Southwest 331 381 26,000  Level Houston Center
Fri 08:26:12 AM 31.1947 -98.1131 216° Southwest 330 380 26,000  Level Houston Center
Fri 08:27:13 AM 31.1053 -98.1856 215° Southwest 332 382 26,000  Level Houston Center
Fri 08:28:15 AM 31.0283 -98.2503 216° Southwest 336 387 26,000  Level Houston Center
Fri 08:29:16 AM 30.9531 -98.3136 216° Southwest 332 382 26,000  Level Houston Center
Fri 08:30:18 AM 30.8767 -98.3781 216° Southwest 335 386 26,000  Level Houston Center
Fri 08:31:19 AM 30.8000 -98.4436 216° Southwest 338 389 26,000  Level Houston Center
Fri 08:32:21 AM 30.7239 -98.5083 216° Southwest 335 386 26,000  Level Houston Center
Fri 08:33:22 AM 30.6472 -98.5719 216° Southwest 336 387 26,000 -244 Level Houston Center
Fri 08:34:24 AM 30.5700 -98.6347 215° Southwest 336 387 25,500 -927 Descending Houston Center
Fri 08:35:25 AM 30.4886 -98.7019 215° Southwest 352 405 24,100 -732 Descending Houston Center
Fri 08:36:27 AM 30.4094 -98.7703 217° Southwest 351 404 24,000 -341 Descending Houston Center
Fri 08:37:28 AM 30.3178 -98.8461 216° Southwest 344 396 23,400 -585 Descending Houston Center
Fri 08:38:30 AM 30.2386 -98.9103 215° Southwest 345 397 22,800 -878 Descending Houston Center
Fri 08:39:31 AM 30.1614 -98.9786 217° Southwest 349 402 21,600 -1,317 Descending Houston Center
Fri 08:40:33 AM 30.0806 -99.0525 218° Southwest 345 397 20,100 -1,258 Descending Houston Center
Fri 08:41:35 AM 30.0064 -99.0969 207° Southwest 348 400 19,000 -1,122 Descending Houston Center
Fri 08:42:36 AM 29.9192 -99.1372 202° Southwest 339 390 17,800 -1,268 Descending Houston Center
Fri 08:43:38 AM 29.8331 -99.1839 205° Southwest 340 391 16,400 -1,415 Descending Houston Center
Fri 08:44:39 AM 29.7297 -99.2417 206° Southwest 342 394 14,900 -1,512 Descending Houston Center
Fri 08:45:41 AM 29.6444 -99.2894 206° Southwest 328 377 13,300 -1,452 Descending Houston Center
Fri 08:46:43 AM 29.5622 -99.3311 204° Southwest 324 373 11,900 -1,317 Descending Houston Center
Fri 08:47:44 AM 29.4883 -99.3692 204° Southwest 311 358 10,600 -1,268 Descending Houston Center
Fri 08:48:46 AM 29.4111 -99.4078 204° Southwest 303 349 9,300 -1,500 Descending Houston Center
Fri 08:49:48 AM 29.3411 -99.4447 205° Southwest 282 325 7,500 -1,756 Descending Houston Center
Fri 08:50:49 AM 29.2725 -99.4806 204° Southwest 272 313 5,700 -1,610 Descending Houston Center
Fri 08:51:51 AM 29.2028 -99.5164 204° Southwest 275 316 4,200 -823 Descending Houston Center
Fri 08:52:53 AM 29.1239 -99.5592 205° Southwest 268 308 4,000 -341 Descending Houston Center
Fri 08:53:54 AM 29.0772 -99.6094 223° Southwest 268 308 3,500 -244 Descending Houston Center
Fri 08:54:56 AM 29.0542 -99.6933 253° West 271 312 3,500  Level Houston Center
Fri 08:56:00 AM 29.1418 -99.7105 327° Northwest  Level FlightAware Approximate
Fri 09:03:00 AM 29.2000 -99.7333 344° North  Level FlightAware Approximate
Fri 09:04:00 AM 29.2113 -99.7436 344° North  Level Estimated

Login

Don't have an account? Register now (free) for customized features, flight alerts, and more!